Hourly Data Report for October 01, 2017

All times are specified in Local Standard Time (LST). Add 1 hour to adjust for Daylight Saving Time where and when it is observed.

BAKER LAKE A
NUNAVUT

64°17'56.000" N
96°04'40.000" W
18.60 m
2300503
71926
YBK

Download Data

Hourly Data (October 2017)
Hourly Data Report for October 1, 2017
Temp Definition
°C
Dew Point Temp Definition
°C
Rel Hum Definition
%
Wind Dir Definition
10's deg

Wind Spd Definition
km/h
Visibility Definition
km
Stn Press Definition
kPa
Hmdx Definition


Wind Chill Definition


Weather Definition


TIME
00:00 Legend Double Dagger -1.3 -4.3 80 13 24 24.1 101.95   -7 Mainly Clear
01:00 Legend Double Dagger -1.4 -4.5 80 13 29 24.1 101.93   -8 LegendNANA
02:00 Legend Double Dagger -1.6 -4.5 80 13 29 24.1 101.91   -8 LegendNANA
03:00 Legend Double Dagger -1.4 -4.1 82 14 30 24.1 101.87   -8 Mainly Clear
04:00 Legend Double Dagger -1.4 -3.8 84 13 31 24.1 101.84   -8 LegendNANA
05:00 Legend Double Dagger -1.0 -3.2 85 13 28 24.1 101.81   -8 LegendNANA
06:00 Legend Double Dagger -0.6 -2.9 85 13 33 32.2 101.77   -8 Mostly Cloudy
07:00 Legend Double Dagger -0.3 -2.7 84 13 35 32.2 101.75   -7 LegendNANA
08:00 Legend Double Dagger 0.2 -2.2 83 13 36 40.2 101.71     LegendNANA
09:00 Legend Double Dagger 0.6 -1.9 83 13 41 40.2 101.63     Mostly Cloudy
10:00 Legend Double Dagger 1.1 -1.5 83 13 41 32.2 101.58     LegendNANA
11:00 Legend Double Dagger 1.2 -0.2 90 13 36 40.2 101.51     Rain
12:00 Legend Double Dagger 1.7 -0.2 88 13 39 40.2 101.45     Cloudy
13:00 Legend Double Dagger 1.8 0.2 89 13 42 12.9 101.39     Rain
14:00 Legend Double Dagger 2.4 0.6 88 13 36 40.2 101.30     LegendNANA
15:00 Legend Double Dagger 2.8 1.2 90 14 35 40.2 101.21     Rain
16:00 Legend Double Dagger 3.1 1.6 90 15 35 32.2 101.10     Rain
17:00 Legend Double Dagger 3.2 1.8 91 15 29 40.2 101.06     Rain
18:00 Legend Double Dagger 3.1 2.2 94 16 24 6.4 101.03     Rain,Fog
19:00 Legend Double Dagger 3.3 2.4 94 15 20 24.1 100.98     Rain
20:00 Legend Double Dagger 3.3 2.8 96 16 18 8.1 100.93     Rain,Fog
21:00 Legend Double Dagger 3.5 3.0 96 17 20 16.1 100.88     Moderate Rain
22:00 Legend Double Dagger 3.7 3.4 98 18 15 16.1 100.84     Rain
23:00 Legend Double Dagger 3.9 3.6 98 20 17 12.9 100.79     Rain

Notes on Data Quality.

Legend

  • E = Estimated
  • M = Missing
  • NA = Not Available
  • ‡ = Partner data that is not subject to review by the National Climate Archives
Date modified: